Regional Weather Roundup
Issued by NWS

Home | Current Version | Previous Version | Graphics & Text | Print | Product List | Glossary On
Versions: 1 2 3 4 5 6 7 8 9 10 11 12 13 14 15 16 17 18 19 20 21 22 23 24 25 26 27 28 29 30 31 32 33 34 35 36 37 38 39 40 41 42 43 44 45 46 47 48 49 50
000
ASUS43 KLSX 200659
RWRMO

WEATHER SUMMARY FOR MISSOURI
NATIONAL WEATHER SERVICE SPRINGFIELD MO
200 AM CDT WED AUG 20 2014

NOTE: "FAIR" INDICATES FEW OR NO CLOUDS BELOW 12,000 FEET WITH NO
       SIGNIFICANT WEATHER AND/OR OBSTRUCTIONS TO VISIBILITY.
       CURRENT SKY AND/OR WEATHER CONDITIONS ARE NOT AVAILABLE FOR
       CHILLICOTHE AND FARMINGTON.

MOZ001>031-035>038-043-044-053-054-200800-
...NORTHERN AND WESTERN MISSOURI...

CITY           SKY/WX    TMP DP  RH WIND       PRES   REMARKS
KANSAS CTY INT PTCLDY    76  69  79 SW8       29.83S
KANSAS C DTWN  CLEAR     82  69  64 SW8       29.82S
LEE`S SUMMIT   CLEAR     79  70  74 SW9       29.85S
ST JOSEPH      CLEAR     74  72  93 S3        29.81S
CHILLICOTHE      N/A     74  72  93 CALM      29.84F
KIRKSVILLE     CLEAR     70  68  93 CALM      29.86R

$$
MOZ066>068-077>081-088>096-101>105-200800-
...SOUTHWEST MISSOURI...

CITY           SKY/WX    TMP DP  RH WIND       PRES   REMARKS
SPRINGFIELD    CLEAR     79  70  74 SW10      29.90S
JOPLIN         CLEAR     80  71  74 S10       29.89S

$$
MOZ032>034-039>042-045>050-055>058-069>072-200800-
...CENTRAL MISSOURI...

CITY           SKY/WX    TMP DP  RH WIND       PRES   REMARKS
COLUMBIA       CLEAR     74  71  91 S3        29.85F
JEFFERSON CITY CLEAR     72  70  93 CALM      29.84F
ROLLA          CLEAR     72  67  84 SW5       29.86F
SEDALIA        PTCLDY    74  70  87 S7        29.86S
OSAGE BEACH    CLEAR     72  68  88 CALM      29.86S

$$
MOZ051-052-059>065-200800-
...EAST CENTRAL MISSOURI...

CITY           SKY/WX    TMP DP  RH WIND       PRES   REMARKS
ST LOUIS INTL  CLEAR     76  71  85 CALM      29.85S
SPIRIT OF STL  CLEAR     71  69  93 CALM      29.83F
ST CHARLES     CLEAR     71  70  96 N5        29.83S

$$
MOZ072>076-082>087-097>100-106>115-200800-
...SOUTH CENTRAL AND SOUTHEAST MISSOURI...

CITY           SKY/WX    TMP DP  RH WIND       PRES   REMARKS
CAPE GIRARDEAU CLEAR     68  66  93 CALM      29.84S
FARMINGTON     CLEAR     70  68  94 CALM      29.88S
POPLAR BLUFF   CLEAR     76  70  82 S6        29.84S
WEST PLAINS    CLEAR     76  71  85 SW5       29.93R

$$



USA.gov is the U.S. government's official web portal to all federal, state and local government web resources and services.